Location: Sankt+Gallen
(47.4262°N, 9.3755°E)
Time: 15:27:08
(UTC+01:00)

ARIANE 6 FM1 Upper Stage - Visible Passes

Search period start: 15 February 2026 00:00
Search period end: 25 February 2026 00:00
Orbit: 522 x 609 km, 62.0° (Epoch: 15 February)

Date Brightness Start Highest point End Pass type
(mag) Time Alt. Az. Time Alt. Az. Time Alt. Az.
15 Feb 3.6 18:40:06 10° NNW 18:43:34 28° NE 18:46:00 16° E visible
15 Feb 3.7 20:18:55 10° NW 20:22:03 42° W 20:22:03 42° W visible
16 Feb 3.2 18:39:58 10° NNW 18:43:39 36° NE 18:46:40 14° ESE visible
16 Feb 4.0 20:19:04 10° WNW 20:22:37 32° WSW 20:22:43 32° SW visible
17 Feb 2.8 18:39:51 10° NW 18:43:42 48° NE 18:47:30 10° ESE visible
17 Feb 4.6 20:19:19 10° WNW 20:22:28 23° WSW 20:23:33 20° SW visible
18 Feb 2.5 18:39:46 10° NW 18:43:43 67° NE 18:47:40 10° SE visible
18 Feb 5.3 20:19:48 10° WNW 20:22:16 16° WSW 20:24:37 10° SSW visible
19 Feb 2.5 18:39:42 10° NW 18:43:41 87° SW 18:47:39 10° SE visible
19 Feb 5.6 20:21:00 10° W 20:22:02 11° WSW 20:23:04 10° SW visible
20 Feb 3.1 18:39:42 10° NW 18:43:37 60° SW 18:47:31 10° SSE visible
21 Feb 3.9 18:39:45 10° NW 18:43:29 41° SW 18:47:13 10° SSE visible
22 Feb 4.7 18:39:54 10° WNW 18:43:20 28° WSW 18:46:46 10° S visible
23 Feb 5.5 18:40:12 10° WNW 18:43:08 20° WSW 18:46:04 10° SSW visible
24 Feb 5.8 18:40:48 10° W 18:42:54 14° WSW 18:44:59 10° SSW visible
